Hourly Weather Roundup
Issued by NWS Central Illinois

Home | Current Version | Previous Version | Text Only | Print | Product List | Glossary On
Versions: 1 2 3 4 5 6 7 8 9 10 11 12 13 14 15 16 17 18 19 20 21 22 23 24 25 26 27 28 29 30 31 32 33 34 35 36 37 38 39 40 41 42 43 44 45 46 47 48 49 50
234
NZUS43 KILX 240110
HWRILX

Area Weather Roundup
National Weather Service Lincoln IL
800 PM CDT MON APR 23 2018

NOTE:  "FAIR" indicates few or no clouds below 12,000 feet, with
       no sigificant weather and/or obstructions to visibility.


CITY           SKY/WX    TMP DP  RH WIND       PRES   REMARKS
Bloomington    LGT RAIN  54  53  97 E14       30.06R FOG
Champaign      LGT RAIN  55  54  96 NE12      30.03S
Danville       CLOUDY    55  55 100 NE7       30.02R
Decatur        LGT RAIN  55  55 100 NE10      30.02R
Effingham      DRIZZLE   56  56 100 NE3       30.00S
Flora          CLOUDY    59  56  88 NE8       29.97R
Galesburg      FAIR      67  36  31 NE7       30.04S
Jacksonville   RAIN      57  54  91 E8        30.02R
Lacon          FAIR      60  41  48 E8        30.05R
Lawrenceville  CLOUDY    58  55  90 MISG      29.97R
Litchfield     DRIZZLE   55  54  97 NE9       29.99S
$$


CITY           SKY/WX    TMP DP  RH WIND       PRES   REMARKS
Lincoln        RAIN      57  57  99 E7        30.04R
Macomb         CLOUDY    60  39  45 E7        30.04S
Mattoon        CLOUDY    56  54  93 NE9       29.99S
Mt Carmel AP   CLOUDY    58  55  91 NE9       29.96R
Olney-Noble AP CLOUDY    57  55  92 NE7       29.97S
Paris AP       CLOUDY    55  55  99 NE9       30.02S FOG
Peoria         LGT RAIN  60  54  80 E8        30.05R
Pontiac        LGT RAIN  56  56  98 E10       30.08R
Rantoul        RAIN      57  56  99 NE9       30.04S
Robinson       CLOUDY    56  55  97 NE7       29.99R
Springfield    LGT RAIN  58  56  93 NE8       30.03R
Taylorville    DRIZZLE   55  55  97 NE8       30.01S
$$

...REGIONAL REPORTS...


CITY           SKY/WX    TMP DP  RH WIND       PRES   REMARKS
Chicago O`Hare CLOUDY    54  25  32 NE14      30.11R
Kankakee       LGT RAIN  49  45  85 NE10      30.09S
La Salle       FAIR      64  38  37 E14       30.07R
Moline         FAIR      68  32  26 E12       30.03S
Mount Sterling CLOUDY    62  39  42 NE13      30.01S
Mount Vernon   CLOUDY    59  55  87 NE8       29.95R
Pittsfield     CLOUDY    62  54  74 E6        30.02R
Quincy         CLOUDY    64  37  36 E8        30.00S
Rockford       MOCLDY    62  27  26 E7        30.10R
$$


CITY           SKY/WX    TMP DP  RH WIND       PRES   REMARKS
Burlington     CLOUDY    67  30  25 NE8       30.02R
Cedar Rapids   FAIR      62  29  28 E8        30.06R
Des Moines     PTCLDY    68  28  22 NE8       30.06S
Kirksville     PTCLDY    60  34  37 N7        30.03S
Ottumwa        PTCLDY    63  26  24 NE7       30.04F
St Louis       CLOUDY    58  54  86 NE7       29.99R
$$


CITY           SKY/WX    TMP DP  RH WIND       PRES   REMARKS
Terre Haute    LGT RAIN  56  55  97 E9        30.00S FOG
Evansville     CLOUDY    60  57  89 E7        29.94R
Indianapolis   CLOUDY    55  51  86 E17       30.03S
Lafayette      CLOUDY    55  54  96 E13       30.05S
Madison        MOCLDY    55  34  45 NE8       30.11S
Milwaukee      MOCLDY    52  25  35 N13       30.13S
$$






USA.gov is the U.S. government's official web portal to all federal, state and local government web resources and services.